TimeCDT,TemperatureF,Dew PointF,Humidity,Sea Level PressureIn,VisibilityMPH,Wind Direction,Wind SpeedMPH,Gust SpeedMPH,PrecipitationIn,Events,Conditions,WindDirDegrees,DateUTC
12:54 AM,77.0,55.9,48,29.63,10.0,WSW,10.4,-,N/A,,Partly Cloudy,240,2013-05-15 05:54:00
1:54 AM,75.9,54.0,46,29.64,10.0,WSW,11.5,19.6,N/A,,Clear,250,2013-05-15 06:54:00
2:54 AM,75.9,52.0,43,29.65,10.0,West,15.0,25.3,N/A,,Clear,260,2013-05-15 07:54:00
3:54 AM,72.0,53.1,51,29.68,10.0,West,12.7,-,N/A,,Clear,260,2013-05-15 08:54:00
4:54 AM,69.1,51.1,53,29.71,10.0,West,9.2,-,N/A,,Clear,270,2013-05-15 09:54:00
5:54 AM,66.0,48.0,52,29.74,10.0,West,8.1,-,N/A,,Partly Cloudy,270,2013-05-15 10:54:00
6:54 AM,66.9,48.9,52,29.77,10.0,West,6.9,-,N/A,,Scattered Clouds,260,2013-05-15 11:54:00
7:54 AM,71.1,46.9,42,29.80,10.0,WNW,13.8,-,N/A,,Scattered Clouds,290,2013-05-15 12:54:00
8:54 AM,73.0,46.0,38,29.82,10.0,NW,11.5,-,N/A,,Mostly Cloudy,310,2013-05-15 13:54:00
9:54 AM,73.9,48.0,40,29.84,10.0,North,9.2,-,N/A,,Scattered Clouds,10,2013-05-15 14:54:00
10:54 AM,75.9,50.0,40,29.84,10.0,North,10.4,-,N/A,,Scattered Clouds,360,2013-05-15 15:54:00
11:54 AM,77.0,48.9,37,29.84,10.0,NW,9.2,-,N/A,,Scattered Clouds,320,2013-05-15 16:54:00
12:54 PM,79.0,50.0,36,29.84,10.0,NNW,10.4,-,N/A,,Scattered Clouds,330,2013-05-15 17:54:00
1:54 PM,80.1,46.0,30,29.83,10.0,NNE,11.5,18.4,N/A,,Scattered Clouds,20,2013-05-15 18:54:00
2:54 PM,81.0,43.0,26,29.83,10.0,NW,8.1,-,N/A,,Scattered Clouds,320,2013-05-15 19:54:00
3:54 PM,82.0,43.0,25,29.82,10.0,NNW,8.1,-,N/A,,Mostly Cloudy,340,2013-05-15 20:54:00
4:54 PM,80.1,45.0,29,29.81,10.0,North,8.1,-,N/A,,Mostly Cloudy,350,2013-05-15 21:54:00
5:54 PM,80.1,43.0,27,29.80,10.0,Calm,Calm,-,N/A,,Mostly Cloudy,0,2013-05-15 22:54:00
6:54 PM,77.0,48.0,36,29.81,10.0,WNW,6.9,-,0.00,,Mostly Cloudy,300,2013-05-15 23:54:00
7:54 PM,73.0,46.0,38,29.82,10.0,NNW,6.9,-,N/A,,Mostly Cloudy,330,2013-05-16 00:54:00
8:54 PM,70.0,46.0,42,29.84,10.0,Calm,Calm,-,N/A,,Scattered Clouds,0,2013-05-16 01:54:00
9:54 PM,68.0,46.9,47,29.87,10.0,NNW,8.1,-,N/A,,Partly Cloudy,330,2013-05-16 02:54:00
10:54 PM,64.9,46.0,50,29.86,10.0,NNW,4.6,-,N/A,,Partly Cloudy,340,2013-05-16 03:54:00
11:54 PM,62.1,46.0,56,29.86,10.0,NNW,5.8,-,N/A,,Partly Cloudy,340,2013-05-16 04:54:00